This demonstration page uses our WeatherBlox Daily Observations layout. Learn more.

Left ArrowRight Arrow

39.29038, -76.61219

Hourly Observations for January 6, 2015

Temp ( °F °C ) Dew Point ( °F °C ) Humidity (%) Winds ( mph kmh ) Pressure ( in mb ) Visibility ( mi km ) Precip ( " mm )
12:54 am 00:54 undefined 25 -3.9 1 -17.2 35 35 undefined N/A 30.38 1029 N/A 0.00 0.00
1:54 am 01:54 undefined 25 -3.9 1 -17.2 35 35 undefined N/A 30.41 1030 N/A 0.00 0.00
2:54 am 02:54 undefined 25 -3.9 3 -16.1 39 39 undefined N/A 30.41 1030 N/A 0.00 0.00
3:54 am 03:54 undefined 25 -3.9 4 -15.6 40 40 undefined N/A 30.43 1030 N/A 0.00 0.00
4:54 am 04:54 undefined 24 -4.4 8 -13.3 50 50 undefined N/A 30.40 1029 N/A 0.00 0.00
5:54 am 05:54 undefined 21 -6.1 17 -8.3 85 85 undefined N/A 30.32 1027 N/A 0.02 0.51
6:54 am 06:54 undefined 21 -6.1 18 -7.8 88 88 undefined N/A 30.42 1030 N/A 0.02 0.51
7:54 am 07:54 undefined 21 -6.1 17 -8.3 85 85 undefined N/A 30.32 1027 N/A 0.05 1.27
8:54 am 08:54 undefined 22 -5.6 19 -7.2 89 89 undefined N/A 30.36 1028 N/A 0.07 1.78
9:54 am 09:54 undefined 23 -5 19 -7.2 85 85 undefined N/A 30.40 1029 N/A 0.04 1.02
10:54 am 10:54 undefined 25 -3.9 20 -6.7 81 81 undefined N/A 30.24 1024 N/A 0.01 0.25
11:54 am 11:54 undefined 25 -3.9 20 -6.7 81 81 undefined N/A 30.20 1023 N/A 0.00 0.00
12:54 pm 12:54 undefined 26 -3.3 21 -6.1 81 81 undefined N/A 30.16 1022 N/A 0.01 0.25
1:54 pm 13:54 undefined 26 -3.3 21 -6.1 81 81 undefined N/A 30.14 1021 N/A 0.00 0.00
2:54 pm 14:54 undefined 27 -2.8 21 -6.1 78 78 undefined N/A 30.15 1021 N/A 0.00 0.00
3:54 pm 15:54 undefined 27 -2.8 20 -6.7 75 75 undefined N/A 30.14 1021 N/A 0.00 0.00
4:54 pm 16:54 undefined 27 -2.8 19 -7.2 72 72 undefined N/A 30.12 1020 N/A 0.00 0.00
5:54 pm 17:54 undefined 27 -2.8 19 -7.2 72 72 undefined N/A 30.13 1020 N/A 0.00 0.00
6:54 pm 18:54 undefined 26 -3.3 18 -7.8 71 71 undefined N/A 30.14 1021 N/A 0.00 0.00
7:54 pm 19:54 undefined 25 -3.9 18 -7.8 75 75 undefined N/A 30.14 1021 N/A 0.00 0.00
8:54 pm 20:54 undefined 25 -3.9 17 -8.3 72 72 undefined N/A 30.13 1020 N/A 0.00 0.00
9:54 pm 21:54 undefined 24 -4.4 17 -8.3 75 75 undefined N/A 30.20 1023 N/A 0.00 0.00
10:54 pm 22:54 undefined 23 -5 16 -8.9 74 74 undefined N/A 30.07 1018 N/A 0.00 0.00
11:54 pm 23:54 undefined 22 -5.6 15 -9.4 75 75 undefined N/A 30.08 1019 N/A 0.00 0.00

Powered by AerisWeather